Ketchikan, AK

11:17 PM AKDT on September 22, 2018 (GMT -0800)
Ketchikan International

Weather History for PAKT - September, 2017

Change the Weather History Date:

Thursday, September 28, 2017

  Actual Average Record
Temperature  
Mean Temperature 56 °F -  
Max Temperature 59 °F 56 °F 66 °F (1949)
Min Temperature 53 °F 44 °F 23 °F (1971)
Degree Days  
Heating Degree Days 9    
Growing Degree Days 6 (Base 50)    
Moisture  
Dew Point 55 °F    
Average Humidity 96    
Maximum Humidity 100    
Minimum Humidity 89    
Precipitation  
Precipitation 0.59 in - - ()
Sea Level Pressure  
Sea Level Pressure 29.85 in    
Wind  
Wind Speed 10 mph (East)    
Max Wind Speed 15 mph    
Max Gust Speed -    
Visibility 7 miles    
Events Rain    
Averages and records for this station are not official NWS values.
T = Trace of Precipitation, MM = Missing Value Source: NWS Daily Summary

Daily Weather History Graph

Daily Weather History Graph

Search for Another Location

Airport or City:

Astronomy

Sep. 28, 2017 Rise Set
Actual Time 6:44 AM AKDT 6:28 PM AKDT
Civil Twilight 6:08 AM AKDT 7:05 PM AKDT
Nautical Twilight 5:25 AM AKDT 7:47 PM AKDT
Astronomical Twilight 4:40 AM AKDT 8:32 PM AKDT
Moon 3:23 PM AKDT (9/28) 11:34 PM AKDT (9/28)
Length of Visible Light 12h 57m
Length of Day
11h 44m
First Quarter, 57% of the Moon is Illuminated
Sep 28
First Quarter
Oct 5
Full
Oct 12
Last Quarter
Oct 19
New
Oct 27
First Quarter

Hourly Weather History & Observations

Time (AKDT) Temp. Dew Point Humidity Pressure Visibility Wind Dir Wind Speed Gust Speed Precip Events Conditions
12:06 AM 59.0 °F 57.0 °F 93% 29.92 in 3.0 mi SSE 6.9 mph - 0.03 in Rain Rain
12:14 AM 57.9 °F 57.0 °F 97% 29.92 in 6.0 mi South 5.8 mph - 0.04 in Rain Light Rain
12:53 AM 59.0 °F 57.0 °F 93% 29.91 in 4.0 mi SSE 8.1 mph - 0.13 in Rain Light Rain
1:05 AM 59.0 °F 57.9 °F 96% 29.90 in 3.0 mi SSE 9.2 mph - 0.01 in Rain Light Rain
1:53 AM 59.0 °F 57.9 °F 96% 29.90 in 2.5 mi SSE 8.1 mph - 0.15 in Rain Rain
1:56 AM 59.0 °F 57.9 °F 96% 29.89 in 3.0 mi SSE 8.1 mph - 0.01 in Rain Rain
2:53 AM 59.0 °F 57.9 °F 96% 29.88 in 7.0 mi SE 12.7 mph - 0.07 in Rain Light Rain
3:29 AM 59.0 °F 57.9 °F 96% 29.87 in 2.0 mi SE 11.5 mph - 0.01 in Rain Light Rain
3:53 AM 59.0 °F 57.9 °F 96% 29.87 in 2.5 mi ESE 13.8 mph - 0.02 in Rain Light Rain
4:02 AM 59.0 °F 57.2 °F 94% 29.87 in 4.0 mi ESE 13.8 mph - N/A Rain Light Rain
4:31 AM 59.0 °F 57.9 °F 96% 29.86 in 5.0 mi SE 13.8 mph - 0.02 in Rain Light Rain
4:53 AM 57.9 °F 57.0 °F 97% 29.87 in 9.0 mi SE 11.5 mph - 0.04 in Rain Light Rain
5:41 AM 57.9 °F 57.0 °F 97% 29.87 in 10.0 mi SE 15.0 mph - 0.03 in Rain Light Rain
5:51 AM 57.2 °F 57.2 °F 100% 29.86 in 10.0 mi SE 12.7 mph - 0.04 in Rain Light Rain
5:53 AM 57.0 °F 57.0 °F 100% 29.87 in 10.0 mi SE 13.8 mph - 0.04 in Rain Light Rain
6:09 AM 57.2 °F 57.2 °F 100% 29.86 in 10.0 mi SE 11.5 mph - N/A Rain Light Rain
6:51 AM 57.2 °F 55.4 °F 94% 29.86 in 10.0 mi SE 13.8 mph - N/A Rain Light Rain
6:53 AM 57.2 °F 55.4 °F 94% 29.87 in 10.0 mi SE 11.5 mph - N/A Rain Light Rain
7:00 AM 57.0 °F 55.9 °F 96% 29.86 in 6.0 mi SE 12.7 mph - 0.01 in Rain Light Rain
7:01 AM 57.0 °F 55.9 °F 96% 29.86 in 10.0 mi SE 12.7 mph - 0.02 in Rain Light Rain
7:53 AM 57.2 °F 55.4 °F 94% 29.86 in 10.0 mi SE 8.1 mph - N/A Rain Light Rain
8:53 AM 57.2 °F 55.4 °F 94% 29.86 in 8.0 mi North 8.1 mph - N/A Rain Light Rain
9:53 AM 53.6 °F 53.6 °F 100% 29.87 in 3.0 mi NNW 11.5 mph - N/A Rain Heavy Rain
10:53 AM 54.0 °F 53.1 °F 97% 29.87 in 3.0 mi North 12.7 mph - 0.05 in Rain Light Rain
11:36 AM 55.0 °F 54.0 °F 96% 29.86 in 7.0 mi NNW 10.4 mph - 0.03 in Rain Light Rain
11:53 AM 53.6 °F 53.6 °F 100% 29.87 in 7.0 mi NNW 10.4 mph - N/A Rain Light Rain
12:53 PM 53.6 °F 53.6 °F 100% 29.86 in 4.0 mi NNW 11.5 mph - N/A Rain Light Rain
1:53 PM 54.0 °F 53.1 °F 97% 29.85 in 5.0 mi NNW 10.4 mph - 0.02 in Rain Light Rain
2:53 PM 54.0 °F 53.1 °F 97% 29.84 in 6.0 mi North 8.1 mph - 0.01 in Rain Light Rain
3:53 PM 54.0 °F 53.1 °F 97% 29.83 in 10.0 mi NW 9.2 mph - 0.02 in Rain Light Rain
4:53 PM 54.0 °F 52.0 °F 93% 29.83 in 10.0 mi NW 8.1 mph - 0.01 in Rain Light Rain
5:53 PM 54.0 °F 52.0 °F 93% 29.81 in 10.0 mi NW 5.8 mph - 0.01 in Rain Light Rain
6:53 PM 53.1 °F 51.1 °F 93% 29.81 in 10.0 mi NW 5.8 mph - 0.00 in   Overcast
7:53 PM 53.1 °F 51.1 °F 93% 29.80 in 10.0 mi NW 5.8 mph - 0.01 in Rain Light Rain
8:53 PM 53.1 °F 51.1 °F 93% 29.79 in 10.0 mi NNW 8.1 mph - 0.00 in   Overcast
9:17 PM 53.1 °F 51.1 °F 93% 29.78 in 10.0 mi NW 6.9 mph - 0.00 in Rain Light Rain
9:53 PM 53.1 °F 51.1 °F 93% 29.77 in 10.0 mi NW 6.9 mph - 0.00 in   Overcast
10:12 PM 53.1 °F 51.1 °F 93% 29.77 in 10.0 mi NW 8.1 mph - N/A   Overcast
10:53 PM 53.1 °F 51.1 °F 93% 29.77 in 10.0 mi NNW 8.1 mph - N/A   Overcast
11:53 PM 53.1 °F 50.0 °F 89% 29.76 in 10.0 mi NNW 8.1 mph - 0.01 in Rain Light Rain